Location: Santa Giusta
(39.8800°N, 8.6069°E)
Time: 17:06:19
(UTC+00:00)

Cosmos 44 Rocket - Pass Details

Date: 02 February 2023
Orbit: 646 x 742 km, 65.1° (Epoch: 01 April)

Event Time Altitude Azimuth Distance (km) Brightness Sun altitude
Rises 19:01:20 0° 217° (SW) 2,945 7.0 -26.2°
Reaches altitude 10° 19:03:37 10° 220° (SW) 2,043 6.2 -26.7°
Enters shadow 19:07:51 64° 272° (W) 728 3.5 -27.5°
